{"data":{"norad_id":64388,"intl_designator":"2025-127U","name":"STARLINK-34198","alt_names":[],"object_type":"PAYLOAD","status":"ACTIVE","operator":null,"country":"US","launch_date":"2025-06-13","launch_site_code":"AFETR","launch_vehicle":null,"mission":null,"orbit_class":"UNKNOWN","rcs_meters":null,"size_class":null,"mass_kg":null,"dimensions":null,"purposes":["comms"],"wikipedia_slug":null,"has_3d_model":false,"image_url":null,"decayed_at":null,"tle_current":{"epoch":"2026-05-24T22:41:44.464128Z","epoch_age_seconds":75794,"freshness":"FRESH","line1":"1 64388U 25127U   26144.94565352  .00014262  00000+0  52659-3 0  9996","line2":"2 64388  42.9996 108.7647 0000902 257.4466 102.6285 15.27592118 54136","mean_motion":15.27592118,"eccentricity":9.02e-5,"inclination_deg":42.9996,"raan_deg":108.7647,"arg_perigee_deg":257.4466,"mean_anomaly_deg":102.6285,"bstar":0.00052659,"rev_number":5413,"period_min":94.266000919494,"perigee_km":482.39393491518,"apogee_km":483.63168634102,"semimajor_km":6861.1498106281,"source":"CELESTRAK","updated_at":"2026-05-25T13:38:20.414742Z"}}}